{"data":{"norad_id":55994,"epoch":"2026-05-24T23:05:11.753376Z","epoch_age_seconds":75369,"freshness":"FRESH","line1":"1 55994U 23042J   26144.96194159 -.00000127  00000+0  49053-5 0  9990","line2":"2 55994  43.0061 348.9214 0001758 268.3538  91.7112 15.27574730174537","mean_motion":15.2757473,"eccentricity":0.0001758,"inclination_deg":43.0061,"raan_deg":348.9214,"arg_perigee_deg":268.3538,"mean_anomaly_deg":91.7112,"bstar":4.9053e-6,"rev_number":17453,"period_min":94.267073925738,"perigee_km":481.85867707103,"apogee_km":484.27107565076,"semimajor_km":6861.2018763609,"source":"CELESTRAK","updated_at":"2026-05-25T13:38:17.923076Z"}}